Rbgn^[z[y[W
メイン
   新天体発見情報
     Comet C/2017 K5 (PANSTARRS)
投稿するにはまず登録を

スレッド表示 | 新しいものから 前のトピック | 次のトピック | 下へ
投稿者 スレッド
佐藤裕久
投稿日時: 2017-6-10 12:22
モデレータ
登録日: 2005-6-12
居住地: 日本
投稿: 1792
オンライン
Comet C/2017 K5 (PANSTARRS)

E. Lilly、 R. J. Wainscoaと M. Michelの通報によると、5月27日、Haleakalaにある1.8-m Pan-STARRS1
望遠鏡で得たCCD露出から別の彗星を発見した。
この天体は、拡張しているが、非常にソフトな外観をしている。
Wainscoatと C. Wipperが、5月28.4日UT、Mauna Keaにある3.6-m Canada-France-Hawaii Telescopeで
得た3枚の60秒w−バンド露出では、この天体は明らかに異常な外観で拡張しており、非対称で北に拡張
している(FWHMは1".8で比較した隣接する恒星は0".6であった)。測定された光度は21.2-21.4等であった。

発見位置は次のとおり、

     2017 UT             R.A. (2000) Decl.       Mag.
     May  27.46475   18 04 39.32   +45 18 24.9   22.0
          27.47857   18 04 38.94   +45 18 24.8   22.0
          27.49243   18 04 38.54   +45 18 24.7   22.4
          27.50625   18 04 38.13   +45 18 25.0   22.1

放物線軌道要素と位置推算表は次のとおり、

Orbital elements:
    C/2017 K5 (PANSTARRS)
T 2020 Mar. 5.75204 TT                                  MPCW
q   7.6119728            (2000.0)            P               Q
                   Peri.  171.46031     +0.20932279     +0.17311829
                   Node   103.45663     -0.94542038     +0.28718158
e   1.0            Incl.   81.71652     -0.24972841     -0.94210233
From 17 observations 2017 May 27-June 1.

Ephemeris:
    C/2017 K5 (PANSTARRS)
Date    TT    R. A. (2000) Decl.     Delta      r     Elong.  Phase   m1
2017 05 02    18 14 23.2 +44 46 20   9.6274  9.8903   102.2     5.7  21.9
...
2017 05 17    18 09 12.0 +45 11 29   9.4976  9.8347   106.6     5.7  21.8
...
2017 05 25    18 05 47.0 +45 17 40   9.4367  9.8053   108.5     5.6  21.8
...
2017 05 31    18 02 59.2 +45 18 26   9.3956  9.7833   109.7     5.6  21.8
2017 06 01    18 02 30.3 +45 18 13   9.3891  9.7796   109.8     5.6  21.8
2017 06 02    18 02 01.2 +45 17 54   9.3827  9.7760   110.0     5.6  21.8
...
2017 06 08    17 59 02.0 +45 13 51   9.3471  9.7540   110.8     5.6  21.7
...
2017 06 16    17 54 55.4 +45 02 33   9.3064  9.7249   111.5     5.6  21.7
...
2017 07 01    17 47 11.5 +44 22 37   9.2525  9.6705   111.4     5.6  21.7

(CBET 4398、MPEC 2017-L05)

スレッド表示 | 新しいものから 前のトピック | 次のトピック | トップ

投稿するにはまず登録を
 
© 1999-2013 Tsutomu Seki.